Location: Bittelbronn
(48.4454°N, 8.5870°E)
Time: 08:06:19
(UTC+00:00)

Meteor 2-5 Rocket - Pass Details

Date: 08 August 2024
Orbit: 833 x 910 km, 81.2° (Epoch: 16 September)

Event Time Altitude Azimuth Distance (km) Brightness Sun altitude
Rises 02:33:20 0° 349° (N) 3,445 7.4 -13.9°
Reaches altitude 10° 02:35:46 10° 351° (N) 2,515 6.7 -13.6°
Maximum altitude 02:41:30 75° 77° (ENE) 911 4.0 -12.9°
Drops below altitude 10° 02:47:18 10° 163° (SSE) 2,550 6.0 -12.2°
Sets 02:49:46 0° 165° (SSE) 3,495 6.6 -11.9°
